Time,TemperatureF,DewpointF,PressureIn,WindDirection,WindDirectionDegrees,WindSpeedMPH,WindSpeedGustMPH,Humidity,HourlyPrecipIn,Conditions,Clouds,dailyrainin,SoftwareType,DateUTC
2013-06-09 00:00:00,62.6,58.0,30.00,WSW,249,0.0,0.0,85,0.00,,,0.00,Wunderground v.1.15,2013-06-09 04:00:00,
2013-06-09 00:05:00,62.4,58.2,30.00,WSW,249,0.0,0.0,86,0.00,,,0.00,Wunderground v.1.15,2013-06-09 04:05:00,
2013-06-09 00:10:00,62.4,58.2,30.00,WSW,249,0.0,0.0,86,0.00,,,0.00,Wunderground v.1.15,2013-06-09 04:10:00,
2013-06-09 00:15:00,62.4,58.2,30.00,WSW,249,0.0,0.0,86,0.00,,,0.00,Wunderground v.1.15,2013-06-09 04:15:00,
2013-06-09 00:25:00,62.4,58.2,30.00,WSW,249,0.0,0.0,86,0.00,,,0.00,Wunderground v.1.15,2013-06-09 04:25:00,
2013-06-09 00:30:00,62.4,58.5,30.00,WSW,249,0.0,0.0,87,0.00,,,0.00,Wunderground v.1.15,2013-06-09 04:30:00,
2013-06-09 00:39:00,62.4,58.5,30.00,WSW,249,0.0,0.0,87,0.00,,,0.00,Wunderground v.1.15,2013-06-09 04:39:00,
2013-06-09 00:45:00,62.4,58.2,30.00,WSW,249,0.0,0.0,86,0.00,,,0.00,Wunderground v.1.15,2013-06-09 04:45:00,
2013-06-09 00:55:00,62.6,57.7,30.00,WSW,249,0.0,0.0,84,0.00,,,0.00,Wunderground v.1.15,2013-06-09 04:55:00,
2013-06-09 01:00:00,62.6,57.4,30.00,WSW,249,0.0,0.0,83,0.00,,,0.00,Wunderground v.1.15,2013-06-09 05:00:00,
2013-06-09 01:10:00,62.7,57.1,30.00,WSW,249,0.0,0.0,82,0.00,,,0.00,Wunderground v.1.15,2013-06-09 05:10:00,
2013-06-09 01:15:00,63.1,57.5,30.00,WSW,249,0.0,0.0,82,0.00,,,0.00,Wunderground v.1.15,2013-06-09 05:15:00,
2013-06-09 01:24:00,63.1,57.2,30.00,WSW,249,0.0,0.0,81,0.00,,,0.00,Wunderground v.1.15,2013-06-09 05:24:00,
2013-06-09 01:30:00,63.1,57.5,30.00,WSW,249,0.0,0.0,82,0.00,,,0.00,Wunderground v.1.15,2013-06-09 05:30:00,
2013-06-09 01:40:00,63.1,57.5,30.00,WSW,249,0.0,0.0,82,0.00,,,0.00,Wunderground v.1.15,2013-06-09 05:40:00,
2013-06-09 01:45:00,63.1,57.9,30.00,WSW,249,0.0,0.0,83,0.00,,,0.00,Wunderground v.1.15,2013-06-09 05:45:00,
2013-06-09 01:54:00,63.1,57.9,30.00,WSW,249,0.0,0.0,83,0.00,,,0.00,Wunderground v.1.15,2013-06-09 05:54:00,
2013-06-09 02:00:00,63.1,58.2,30.00,WSW,249,0.0,0.0,84,0.00,,,0.00,Wunderground v.1.15,2013-06-09 06:00:00,
2013-06-09 02:05:00,62.9,58.0,30.00,WSW,249,0.0,0.0,84,0.00,,,0.00,Wunderground v.1.15,2013-06-09 06:05:00,
2013-06-09 02:15:00,62.7,57.8,30.00,WSW,249,0.0,0.0,84,0.00,,,0.00,Wunderground v.1.15,2013-06-09 06:15:00,
2013-06-09 02:25:00,62.6,57.7,30.00,WSW,249,0.0,0.0,84,0.00,,,0.00,Wunderground v.1.15,2013-06-09 06:25:00,
2013-06-09 02:30:00,62.4,57.5,30.00,WSW,249,0.0,0.0,84,0.00,,,0.00,Wunderground v.1.15,2013-06-09 06:30:00,
2013-06-09 02:39:00,62.4,57.5,30.00,WSW,249,0.0,0.0,84,0.00,,,0.00,Wunderground v.1.15,2013-06-09 06:39:00,
2013-06-09 02:45:00,62.3,57.4,30.00,WSW,249,0.0,0.0,84,0.00,,,0.00,Wunderground v.1.15,2013-06-09 06:45:00,
2013-06-09 02:55:00,62.0,57.4,30.00,WSW,249,0.0,0.0,85,0.00,,,0.00,Wunderground v.1.15,2013-06-09 06:55:00,
2013-06-09 03:00:00,61.8,57.2,30.00,WSW,249,0.0,0.0,85,0.00,,,0.00,Wunderground v.1.15,2013-06-09 07:00:00,
2013-06-09 03:10:00,61.5,56.9,30.00,WSW,249,0.0,0.0,85,0.00,,,0.00,Wunderground v.1.15,2013-06-09 07:10:00,
2013-06-09 03:15:00,61.3,56.8,30.00,WSW,249,0.0,0.0,85,0.00,,,0.00,Wunderground v.1.15,2013-06-09 07:15:00,
2013-06-09 03:25:00,61.2,57.0,30.00,WSW,249,0.0,0.0,86,0.00,,,0.00,Wunderground v.1.15,2013-06-09 07:25:00,
2013-06-09 03:30:00,61.2,57.0,30.00,WSW,249,0.0,0.0,86,0.00,,,0.00,Wunderground v.1.15,2013-06-09 07:30:00,
2013-06-09 03:40:00,61.2,57.3,30.00,WSW,249,0.0,0.0,87,0.00,,,0.00,Wunderground v.1.15,2013-06-09 07:40:00,
2013-06-09 03:45:00,61.3,57.4,29.99,WSW,249,0.0,0.0,87,0.00,,,0.00,Wunderground v.1.15,2013-06-09 07:45:00,
2013-06-09 03:54:00,61.5,57.6,29.99,WSW,249,0.0,0.0,87,0.00,,,0.00,Wunderground v.1.15,2013-06-09 07:54:00,
2013-06-09 04:00:00,61.5,57.6,30.00,WSW,249,0.0,0.0,87,0.00,,,0.00,Wunderground v.1.15,2013-06-09 08:00:00,
2013-06-09 04:05:00,61.5,57.6,30.00,WSW,249,0.0,0.0,87,0.00,,,0.00,Wunderground v.1.15,2013-06-09 08:05:00,
2013-06-09 04:15:00,61.5,57.6,30.00,WSW,249,0.0,0.0,87,0.00,,,0.00,Wunderground v.1.15,2013-06-09 08:15:00,
2013-06-09 04:24:00,61.5,57.6,30.00,WSW,249,0.0,0.0,87,0.00,,,0.00,Wunderground v.1.15,2013-06-09 08:24:00,
2013-06-09 04:30:00,61.5,57.6,30.00,WSW,249,0.0,0.0,87,0.00,,,0.00,Wunderground v.1.15,2013-06-09 08:30:00,
2013-06-09 04:40:00,61.6,58.0,30.00,WSW,249,0.0,0.0,88,0.00,,,0.00,Wunderground v.1.15,2013-06-09 08:40:00,
2013-06-09 04:45:00,61.6,58.0,30.00,WSW,249,0.0,0.0,88,0.00,,,0.00,Wunderground v.1.15,2013-06-09 08:45:00,
2013-06-09 04:54:00,61.6,57.7,30.00,WSW,249,0.0,0.0,87,0.00,,,0.00,Wunderground v.1.15,2013-06-09 08:54:00,
2013-06-09 05:00:00,61.8,57.9,30.00,WSW,249,0.0,0.0,87,0.00,,,0.00,Wunderground v.1.15,2013-06-09 09:00:00,
2013-06-09 05:09:00,61.8,57.9,30.00,WSW,249,0.0,0.0,87,0.00,,,0.00,Wunderground v.1.15,2013-06-09 09:09:00,
2013-06-09 05:15:00,61.8,57.9,30.00,WSW,249,0.0,0.0,87,0.00,,,0.00,Wunderground v.1.15,2013-06-09 09:15:00,
2013-06-09 05:25:00,61.6,57.7,30.00,WSW,249,0.0,0.0,87,0.00,,,0.00,Wunderground v.1.15,2013-06-09 09:25:00,
2013-06-09 05:30:00,61.6,57.7,30.00,WSW,249,0.0,0.0,87,0.00,,,0.00,Wunderground v.1.15,2013-06-09 09:30:00,
2013-06-09 05:40:00,61.5,57.6,30.00,WSW,249,0.0,0.0,87,0.00,,,0.00,Wunderground v.1.15,2013-06-09 09:40:00,
2013-06-09 05:45:00,61.3,57.7,30.00,WSW,249,0.0,0.0,88,0.00,,,0.00,Wunderground v.1.15,2013-06-09 09:45:00,
2013-06-09 05:55:00,61.3,57.7,30.00,WSW,249,0.0,0.0,88,0.00,,,0.00,Wunderground v.1.15,2013-06-09 09:55:00,
2013-06-09 06:00:00,61.3,57.7,30.01,WSW,249,0.0,0.0,88,0.00,,,0.00,Wunderground v.1.15,2013-06-09 10:00:00,
2013-06-09 06:10:00,61.3,57.7,30.01,WSW,249,0.0,0.0,88,0.00,,,0.00,Wunderground v.1.15,2013-06-09 10:10:00,
2013-06-09 06:15:00,61.5,57.6,30.01,WSW,249,0.0,0.0,87,0.00,,,0.00,Wunderground v.1.15,2013-06-09 10:15:00,
2013-06-09 06:24:00,61.5,57.6,30.01,WSW,249,0.0,0.0,87,0.00,,,0.00,Wunderground v.1.15,2013-06-09 10:24:00,
2013-06-09 06:30:00,61.5,57.6,30.02,WSW,249,0.0,0.0,87,0.00,,,0.00,Wunderground v.1.15,2013-06-09 10:30:00,
2013-06-09 06:40:00,61.5,57.6,30.02,WSW,249,0.0,0.0,87,0.00,,,0.00,Wunderground v.1.15,2013-06-09 10:40:00,
2013-06-09 06:45:00,61.6,57.7,30.02,WSW,249,0.0,0.0,87,0.00,,,0.00,Wunderground v.1.15,2013-06-09 10:45:00,
2013-06-09 06:54:00,61.8,58.2,30.02,WSW,249,0.0,0.0,88,0.00,,,0.00,Wunderground v.1.15,2013-06-09 10:54:00,
2013-06-09 07:00:00,61.8,58.2,30.03,WSW,249,0.0,0.0,88,0.00,,,0.00,Wunderground v.1.15,2013-06-09 11:00:00,
2013-06-09 07:10:00,61.8,58.2,30.03,WSW,249,0.0,0.0,88,0.00,,,0.00,Wunderground v.1.15,2013-06-09 11:10:00,
2013-06-09 07:15:00,62.0,58.4,30.03,WSW,249,0.0,0.0,88,0.00,,,0.00,Wunderground v.1.15,2013-06-09 11:15:00,
2013-06-09 07:24:00,62.3,58.7,30.03,WSW,249,0.0,0.0,88,0.00,,,0.00,Wunderground v.1.15,2013-06-09 11:24:00,
2013-06-09 07:30:00,62.4,58.8,30.03,WSW,249,0.0,0.0,88,0.00,,,0.00,Wunderground v.1.15,2013-06-09 11:30:00,
2013-06-09 07:40:00,62.9,59.3,30.03,WSW,249,0.0,0.0,88,0.00,,,0.00,Wunderground v.1.15,2013-06-09 11:40:00,
2013-06-09 07:45:00,63.1,59.2,30.03,WSW,249,0.0,0.0,87,0.00,,,0.00,Wunderground v.1.15,2013-06-09 11:45:00,
2013-06-09 07:54:00,63.5,59.2,30.03,WSW,249,0.0,0.0,86,0.00,,,0.00,Wunderground v.1.15,2013-06-09 11:54:00,
2013-06-09 08:00:00,63.5,59.2,30.03,WSW,249,0.0,0.0,86,0.00,,,0.00,Wunderground v.1.15,2013-06-09 12:00:00,
2013-06-09 08:05:00,63.7,59.4,30.03,WSW,249,0.0,0.0,86,0.00,,,0.00,Wunderground v.1.15,2013-06-09 12:05:00,
2013-06-09 08:15:00,64.0,59.7,30.03,South,186,0.0,0.0,86,0.00,,,0.00,Wunderground v.1.15,2013-06-09 12:15:00,
2013-06-09 08:25:00,64.2,59.3,30.03,SW,219,0.0,0.0,84,0.00,,,0.00,Wunderground v.1.15,2013-06-09 12:25:00,
2013-06-09 08:30:00,64.5,59.9,30.03,SW,219,0.0,0.0,85,0.00,,,0.00,Wunderground v.1.15,2013-06-09 12:30:00,
2013-06-09 08:40:00,65.2,59.9,30.03,SSW,196,1.0,2.0,83,0.00,,,0.00,Wunderground v.1.15,2013-06-09 12:40:00,
2013-06-09 08:45:00,65.5,60.2,30.03,South,184,2.0,2.0,83,0.00,,,0.00,Wunderground v.1.15,2013-06-09 12:45:00,
2013-06-09 08:54:00,66.0,59.7,30.03,SW,232,1.0,3.0,80,0.00,,,0.00,Wunderground v.1.15,2013-06-09 12:54:00,
2013-06-09 09:00:00,66.3,59.9,30.02,SSW,193,2.0,4.0,80,0.00,,,0.00,Wunderground v.1.15,2013-06-09 13:00:00,
2013-06-09 09:05:00,66.6,60.6,30.02,South,169,1.0,4.0,81,0.00,,,0.00,Wunderground v.1.15,2013-06-09 13:05:00,
2013-06-09 09:15:00,67.3,60.9,30.03,SW,236,1.0,2.0,80,0.00,,,0.00,Wunderground v.1.15,2013-06-09 13:15:00,
2013-06-09 09:25:00,68.1,61.3,30.03,SSW,198,1.0,1.0,79,0.00,,,0.00,Wunderground v.1.15,2013-06-09 13:25:00,
2013-06-09 09:30:00,68.4,60.5,30.02,South,169,1.0,1.0,76,0.00,,,0.00,Wunderground v.1.15,2013-06-09 13:30:00,
2013-06-09 09:39:00,69.1,62.7,30.02,South,169,0.0,0.0,80,0.00,,,0.00,Wunderground v.1.15,2013-06-09 13:39:00,
2013-06-09 09:45:00,69.4,61.5,30.02,SSW,195,1.0,1.0,76,0.00,,,0.00,Wunderground v.1.15,2013-06-09 13:45:00,
2013-06-09 09:55:00,69.8,61.9,30.02,SSW,210,0.0,7.0,76,0.00,,,0.00,Wunderground v.1.15,2013-06-09 13:55:00,
2013-06-09 10:00:00,70.3,62.4,30.02,SSW,201,2.0,3.0,76,0.00,,,0.00,Wunderground v.1.15,2013-06-09 14:00:00,
2013-06-09 10:10:00,70.9,63.0,30.02,WNW,295,1.0,1.0,76,0.00,,,0.00,Wunderground v.1.15,2013-06-09 14:10:00,
2013-06-09 10:15:00,71.3,62.6,30.01,SSW,211,1.0,1.0,74,0.00,,,0.00,Wunderground v.1.15,2013-06-09 14:15:00,
2013-06-09 10:24:00,72.0,62.9,30.01,SW,215,1.0,1.0,73,0.00,,,0.00,Wunderground v.1.15,2013-06-09 14:24:00,
2013-06-09 10:30:00,72.3,62.4,30.01,WSW,242,1.0,3.0,71,0.00,,,0.00,Wunderground v.1.15,2013-06-09 14:30:00,
2013-06-09 10:39:00,72.1,61.0,30.01,SW,227,2.0,2.0,68,0.00,,,0.00,Wunderground v.1.15,2013-06-09 14:39:00,
2013-06-09 10:45:00,72.3,62.0,30.00,South,189,1.0,2.0,70,0.00,,,0.00,Wunderground v.1.15,2013-06-09 14:45:00,
2013-06-09 10:55:00,72.7,62.8,30.00,SSW,195,1.0,2.0,71,0.00,,,0.00,Wunderground v.1.15,2013-06-09 14:55:00,
2013-06-09 11:00:00,73.0,64.2,30.00,SSW,192,1.0,1.0,74,0.00,,,0.00,Wunderground v.1.15,2013-06-09 15:00:00,
2013-06-09 11:09:00,73.9,65.1,30.00,SSW,202,2.0,2.0,74,0.00,,,0.00,Wunderground v.1.15,2013-06-09 15:09:00,
2013-06-09 11:15:00,73.9,63.9,30.00,SSW,207,2.0,2.0,71,0.00,,,0.00,Wunderground v.1.15,2013-06-09 15:15:00,
2013-06-09 11:24:00,73.9,63.5,30.00,WSW,238,1.0,2.0,70,0.00,,,0.00,Wunderground v.1.15,2013-06-09 15:24:00,
2013-06-09 11:30:00,73.9,63.9,30.00,South,190,1.0,1.0,71,0.00,,,0.00,Wunderground v.1.15,2013-06-09 15:30:00,
2013-06-09 11:40:00,73.7,63.3,30.00,SSW,193,1.0,1.0,70,0.00,,,0.00,Wunderground v.1.15,2013-06-09 15:40:00,
2013-06-09 11:45:00,74.0,65.2,30.00,SSW,194,0.0,1.0,74,0.00,,,0.00,Wunderground v.1.15,2013-06-09 15:45:00,
2013-06-09 11:54:00,74.4,64.8,30.00,SSW,194,0.0,0.0,72,0.00,,,0.00,Wunderground v.1.15,2013-06-09 15:54:00,
2013-06-09 12:00:00,74.6,65.4,30.00,SE,144,0.0,0.0,73,0.00,,,0.00,Wunderground v.1.15,2013-06-09 16:00:00,
2013-06-09 12:05:00,75.3,65.6,30.00,SW,224,1.0,5.0,72,0.00,,,0.00,Wunderground v.1.15,2013-06-09 16:05:00,
2013-06-09 12:15:00,76.5,66.8,30.00,SSW,206,1.0,4.0,72,0.00,,,0.00,Wunderground v.1.15,2013-06-09 16:15:00,
2013-06-09 12:25:00,75.6,64.3,30.00,SSW,200,2.0,3.0,68,0.00,,,0.00,Wunderground v.1.15,2013-06-09 16:25:00,
2013-06-09 12:34:00,75.1,65.1,30.00,SSW,199,1.0,2.0,71,0.00,,,0.00,Wunderground v.1.15,2013-06-09 16:34:00,
2013-06-09 12:39:00,75.1,64.6,30.00,SW,222,1.0,2.0,70,0.00,,,0.00,Wunderground v.1.15,2013-06-09 16:39:00,
2013-06-09 12:45:00,75.3,66.0,29.99,SW,215,1.0,1.0,73,0.00,,,0.00,Wunderground v.1.15,2013-06-09 16:45:00,
2013-06-09 12:55:00,76.0,64.7,29.99,SW,222,1.0,1.0,68,0.00,,,0.00,Wunderground v.1.15,2013-06-09 16:55:00,
2013-06-09 13:00:00,76.3,65.4,29.99,SW,224,1.0,3.0,69,0.00,,,0.00,Wunderground v.1.15,2013-06-09 17:00:00,
2013-06-09 13:10:00,77.0,63.4,29.99,SE,137,1.0,1.0,63,0.00,,,0.00,Wunderground v.1.15,2013-06-09 17:10:00,
2013-06-09 13:15:00,77.2,61.8,29.99,SSW,198,1.0,1.0,59,0.00,,,0.00,Wunderground v.1.15,2013-06-09 17:15:00,
2013-06-09 13:24:00,77.2,62.7,29.99,SSE,147,1.0,1.0,61,0.00,,,0.00,Wunderground v.1.15,2013-06-09 17:24:00,
2013-06-09 13:30:00,77.4,61.0,29.98,SW,224,0.0,0.0,57,0.00,,,0.00,Wunderground v.1.15,2013-06-09 17:30:00,
2013-06-09 13:40:00,78.8,64.7,29.98,South,181,0.0,0.0,62,0.00,,,0.00,Wunderground v.1.15,2013-06-09 17:40:00,
2013-06-09 13:45:00,78.8,63.7,29.97,SSW,197,0.0,2.0,60,0.00,,,0.00,Wunderground v.1.15,2013-06-09 17:45:00,
2013-06-09 13:55:00,79.0,61.5,29.97,South,191,1.0,3.0,55,0.00,,,0.00,Wunderground v.1.15,2013-06-09 17:55:00,
2013-06-09 14:00:00,78.8,60.7,29.95,South,191,1.0,1.0,54,0.00,,,0.00,Wunderground v.1.15,2013-06-09 18:00:00,
2013-06-09 14:10:00,78.8,59.1,29.95,SW,222,1.0,3.0,51,0.00,,,0.00,Wunderground v.1.15,2013-06-09 18:10:00,
2013-06-09 14:15:00,79.2,62.7,29.95,SSW,209,1.0,3.0,57,0.00,,,0.00,Wunderground v.1.15,2013-06-09 18:15:00,
2013-06-09 14:24:00,79.6,63.0,29.95,SSW,204,1.0,1.0,57,0.00,,,0.00,Wunderground v.1.15,2013-06-09 18:24:00,
2013-06-09 14:30:00,79.2,59.5,29.95,SSW,211,1.0,1.0,51,0.00,,,0.00,Wunderground v.1.15,2013-06-09 18:30:00,
2013-06-09 14:40:00,78.5,63.0,29.95,SSW,211,1.0,1.0,59,0.00,,,0.00,Wunderground v.1.15,2013-06-09 18:40:00,
2013-06-09 14:45:00,78.5,59.4,29.95,SSW,205,1.0,1.0,52,0.00,,,0.00,Wunderground v.1.15,2013-06-09 18:45:00,
2013-06-09 14:54:00,79.2,60.1,29.95,SSE,150,1.0,2.0,52,0.00,,,0.00,Wunderground v.1.15,2013-06-09 18:54:00,
2013-06-09 15:00:00,78.8,61.8,29.95,SSW,202,1.0,1.0,56,0.00,,,0.00,Wunderground v.1.15,2013-06-09 19:00:00,
2013-06-09 15:05:00,78.8,63.3,29.95,SSW,202,0.0,1.0,59,0.00,,,0.00,Wunderground v.1.15,2013-06-09 19:05:00,
2013-06-09 15:15:00,78.6,61.6,29.94,WSW,240,1.0,2.0,56,0.00,,,0.00,Wunderground v.1.15,2013-06-09 19:15:00,
2013-06-09 15:25:00,79.0,64.4,29.94,SSW,205,1.0,2.0,61,0.00,,,0.00,Wunderground v.1.15,2013-06-09 19:25:00,
2013-06-09 15:30:00,79.8,61.1,29.93,SE,132,1.0,1.0,53,0.00,,,0.00,Wunderground v.1.15,2013-06-09 19:30:00,
2013-06-09 15:39:00,79.4,61.3,29.93,West,271,1.0,1.0,54,0.00,,,0.00,Wunderground v.1.15,2013-06-09 19:39:00,
2013-06-09 15:45:00,78.8,61.3,29.92,West,271,0.0,1.0,55,0.00,,,0.00,Wunderground v.1.15,2013-06-09 19:45:00,
2013-06-09 15:54:00,78.3,62.8,29.92,SSW,196,1.0,4.0,59,0.00,,,0.00,Wunderground v.1.15,2013-06-09 19:54:00,
2013-06-09 16:00:00,77.9,63.8,29.93,SSW,196,0.0,1.0,62,0.00,,,0.00,Wunderground v.1.15,2013-06-09 20:00:00,
2013-06-09 16:10:00,78.5,63.0,29.93,SW,236,1.0,1.0,59,0.00,,,0.00,Wunderground v.1.15,2013-06-09 20:10:00,
2013-06-09 16:15:00,78.8,65.1,29.93,SW,236,0.0,1.0,63,0.00,,,0.00,Wunderground v.1.15,2013-06-09 20:15:00,
2013-06-09 16:25:00,79.4,64.8,29.93,SE,128,0.0,1.0,61,0.00,,,0.00,Wunderground v.1.15,2013-06-09 20:25:00,
2013-06-09 16:30:00,80.1,62.0,29.92,SSW,196,1.0,2.0,54,0.00,,,0.00,Wunderground v.1.15,2013-06-09 20:30:00,
2013-06-09 16:40:00,80.5,62.8,29.92,SE,138,2.0,2.0,55,0.00,,,0.00,Wunderground v.1.15,2013-06-09 20:40:00,
2013-06-09 16:45:00,80.1,62.0,29.91,SE,138,1.0,2.0,54,0.00,,,0.00,Wunderground v.1.15,2013-06-09 20:45:00,
2013-06-09 16:55:00,79.6,59.9,29.91,SSW,200,2.0,2.0,51,0.00,,,0.00,Wunderground v.1.15,2013-06-09 20:55:00,
2013-06-09 17:00:00,79.6,64.5,29.91,SSW,211,2.0,2.0,60,0.00,,,0.00,Wunderground v.1.15,2013-06-09 21:00:00,
2013-06-09 17:10:00,79.9,62.3,29.91,SSW,212,1.0,1.0,55,0.00,,,0.00,Wunderground v.1.15,2013-06-09 21:10:00,
2013-06-09 17:15:00,79.9,64.3,29.91,SSW,208,1.0,4.0,59,0.00,,,0.00,Wunderground v.1.15,2013-06-09 21:15:00,
2013-06-09 17:24:00,79.6,64.0,29.91,ESE,121,2.0,2.0,59,0.00,,,0.00,Wunderground v.1.15,2013-06-09 21:24:00,
2013-06-09 17:30:00,79.2,63.6,29.90,SE,128,1.0,1.0,59,0.00,,,0.00,Wunderground v.1.15,2013-06-09 21:30:00,
2013-06-09 17:40:00,78.6,63.1,29.90,SE,128,0.0,0.0,59,0.00,,,0.00,Wunderground v.1.15,2013-06-09 21:40:00,
2013-06-09 17:45:00,78.3,60.8,29.90,SW,225,0.0,0.0,55,0.00,,,0.00,Wunderground v.1.15,2013-06-09 21:45:00,
2013-06-09 17:55:00,78.3,63.3,29.90,SW,225,0.0,0.0,60,0.00,,,0.00,Wunderground v.1.15,2013-06-09 21:55:00,
2013-06-09 18:00:00,78.3,63.3,29.90,SW,225,0.0,0.0,60,0.00,,,0.00,Wunderground v.1.15,2013-06-09 22:00:00,
2013-06-09 18:09:00,78.1,62.6,29.90,SW,225,0.0,0.0,59,0.00,,,0.00,Wunderground v.1.15,2013-06-09 22:09:00,
2013-06-09 18:15:00,77.7,62.2,29.89,SW,223,0.0,0.0,59,0.00,,,0.00,Wunderground v.1.15,2013-06-09 22:15:00,
2013-06-09 18:24:00,77.2,61.8,29.89,SW,223,0.0,0.0,59,0.00,,,0.00,Wunderground v.1.15,2013-06-09 22:24:00,
2013-06-09 18:30:00,77.0,63.9,29.89,SW,223,0.0,0.0,64,0.00,,,0.00,Wunderground v.1.15,2013-06-09 22:30:00,
2013-06-09 18:40:00,76.5,63.4,29.89,SSW,198,0.0,0.0,64,0.00,,,0.00,Wunderground v.1.15,2013-06-09 22:40:00,
2013-06-09 18:45:00,76.3,63.2,29.90,SSW,198,0.0,0.0,64,0.00,,,0.00,Wunderground v.1.15,2013-06-09 22:45:00,
2013-06-09 18:55:00,76.1,63.0,29.90,SSW,198,0.0,0.0,64,0.00,,,0.00,Wunderground v.1.15,2013-06-09 22:55:00,
2013-06-09 19:00:00,76.0,63.4,29.90,SSW,198,0.0,1.0,65,0.00,,,0.00,Wunderground v.1.15,2013-06-09 23:00:00,
2013-06-09 19:09:00,76.0,62.5,29.90,SSW,198,0.0,0.0,63,0.00,,,0.00,Wunderground v.1.15,2013-06-09 23:09:00,
2013-06-09 19:15:00,75.8,62.8,29.90,SSW,198,0.0,0.0,64,0.00,,,0.00,Wunderground v.1.15,2013-06-09 23:15:00,
2013-06-09 19:25:00,75.6,62.6,29.90,SSW,198,0.0,0.0,64,0.00,,,0.00,Wunderground v.1.15,2013-06-09 23:25:00,
2013-06-09 19:30:00,75.4,62.8,29.90,SSW,198,0.0,0.0,65,0.00,,,0.00,Wunderground v.1.15,2013-06-09 23:30:00,
2013-06-09 19:39:00,75.1,63.0,29.90,SSW,198,0.0,0.0,66,0.00,,,0.00,Wunderground v.1.15,2013-06-09 23:39:00,
2013-06-09 19:45:00,74.9,63.6,29.91,SSW,198,0.0,0.0,68,0.00,,,0.00,Wunderground v.1.15,2013-06-09 23:45:00,
2013-06-09 19:55:00,74.7,63.9,29.91,SSW,198,0.0,0.0,69,0.00,,,0.00,Wunderground v.1.15,2013-06-09 23:55:00,
2013-06-09 20:00:00,74.4,63.1,29.91,SSW,198,0.0,0.0,68,0.00,,,0.00,Wunderground v.1.15,2013-06-10 00:00:00,
2013-06-09 20:10:00,73.9,63.5,29.91,SSW,198,0.0,0.0,70,0.00,,,0.00,Wunderground v.1.15,2013-06-10 00:10:00,
2013-06-09 20:15:00,73.7,63.7,29.91,SSW,198,0.0,0.0,71,0.00,,,0.00,Wunderground v.1.15,2013-06-10 00:15:00,
2013-06-09 20:25:00,73.2,64.8,29.91,SSW,198,0.0,0.0,75,0.00,,,0.00,Wunderground v.1.15,2013-06-10 00:25:00,
2013-06-09 20:30:00,72.8,64.4,29.91,SSW,198,0.0,0.0,75,0.00,,,0.00,Wunderground v.1.15,2013-06-10 00:30:00,
2013-06-09 20:40:00,72.1,65.2,29.91,SSW,198,0.0,0.0,79,0.00,,,0.00,Wunderground v.1.15,2013-06-10 00:40:00,
2013-06-09 20:45:00,71.6,65.1,29.90,SSW,198,0.0,0.0,80,0.00,,,0.00,Wunderground v.1.15,2013-06-10 00:45:00,
2013-06-09 20:54:00,71.3,64.1,29.90,WSW,243,0.0,1.0,78,0.00,,,0.00,Wunderground v.1.15,2013-06-10 00:54:00,
2013-06-09 21:00:00,71.3,64.1,29.90,WSW,243,0.0,0.0,78,0.00,,,0.00,Wunderground v.1.15,2013-06-10 01:00:00,
2013-06-09 21:10:00,70.9,64.4,29.90,WSW,243,0.0,0.0,80,0.00,,,0.01,Wunderground v.1.15,2013-06-10 01:10:00,
2013-06-09 21:15:00,70.8,64.7,29.90,WSW,243,0.0,0.0,81,0.00,,,0.01,Wunderground v.1.15,2013-06-10 01:15:00,
2013-06-09 21:24:00,70.3,64.5,29.90,WSW,243,0.0,0.0,82,0.00,,,0.01,Wunderground v.1.15,2013-06-10 01:24:00,
2013-06-09 21:30:00,70.1,64.7,29.90,WSW,243,0.0,0.0,83,0.00,,,0.01,Wunderground v.1.15,2013-06-10 01:30:00,
2013-06-09 21:40:00,69.8,64.7,29.90,WSW,243,0.0,0.0,84,0.00,,,0.01,Wunderground v.1.15,2013-06-10 01:40:00,
2013-06-09 21:45:00,69.6,64.9,29.90,WSW,243,0.0,0.0,85,0.00,,,0.01,Wunderground v.1.15,2013-06-10 01:45:00,
2013-06-09 21:55:00,69.6,64.9,29.90,WSW,243,0.0,0.0,85,0.00,,,0.01,Wunderground v.1.15,2013-06-10 01:55:00,
2013-06-09 22:00:00,69.4,65.0,29.90,WSW,243,0.0,0.0,86,0.00,,,0.01,Wunderground v.1.15,2013-06-10 02:00:00,
2013-06-09 22:09:00,69.4,64.7,29.90,WSW,242,0.0,0.0,85,0.00,,,0.01,Wunderground v.1.15,2013-06-10 02:09:00,
2013-06-09 22:15:00,69.4,64.4,29.89,SSW,196,0.0,0.0,84,0.00,,,0.01,Wunderground v.1.15,2013-06-10 02:15:00,
2013-06-09 22:25:00,69.6,64.2,29.89,SSW,202,0.0,1.0,83,0.00,,,0.01,Wunderground v.1.15,2013-06-10 02:25:00,
2013-06-09 22:30:00,69.6,64.2,29.89,SSW,201,0.0,0.0,83,0.00,,,0.01,Wunderground v.1.15,2013-06-10 02:30:00,
2013-06-09 22:40:00,69.4,63.7,29.89,South,191,0.0,1.0,82,0.00,,,0.01,Wunderground v.1.15,2013-06-10 02:40:00,
2013-06-09 22:45:00,69.4,64.0,29.89,South,191,0.0,1.0,83,0.00,,,0.01,Wunderground v.1.15,2013-06-10 02:45:00,
2013-06-09 22:54:00,69.4,64.0,29.89,SE,141,0.0,1.0,83,0.00,,,0.01,Wunderground v.1.15,2013-06-10 02:54:00,
2013-06-09 23:00:00,69.3,63.9,29.89,South,175,0.0,3.0,83,0.00,,,0.01,Wunderground v.1.15,2013-06-10 03:00:00,
2013-06-09 23:10:00,69.3,63.9,29.89,SSW,194,1.0,1.0,83,0.00,,,0.01,Wunderground v.1.15,2013-06-10 03:10:00,
2013-06-09 23:15:00,69.3,63.9,29.89,SSE,155,0.0,1.0,83,0.00,,,0.01,Wunderground v.1.15,2013-06-10 03:15:00,
2013-06-09 23:25:00,69.3,63.6,29.89,SSE,163,0.0,0.0,82,0.00,,,0.01,Wunderground v.1.15,2013-06-10 03:25:00,
2013-06-09 23:30:00,69.3,63.9,29.87,South,169,0.0,2.0,83,0.00,,,0.01,Wunderground v.1.15,2013-06-10 03:30:00,
2013-06-09 23:40:00,69.1,63.7,29.87,SSW,213,1.0,1.0,83,0.00,,,0.01,Wunderground v.1.15,2013-06-10 03:40:00,
2013-06-09 23:45:00,68.9,63.9,29.87,SSW,194,1.0,1.0,84,0.00,,,0.01,Wunderground v.1.15,2013-06-10 03:45:00,
2013-06-09 23:54:00,68.8,63.8,29.87,South,173,1.0,1.0,84,0.00,,,0.01,Wunderground v.1.15,2013-06-10 03:54:00,